Date String (YYYY-MM-DD hh:mm:ss) UTC,Instrument flags,Ambient pressure (hPa),Sample flow (lpm),Bypass flow (lpm),Sample temperature (°C),Ambient temperature (°C),ASC tube jacket temperature (°C),LED temperature (°C),Box temperature (°C),Sample RH (%),Span deviation,Mass concentration (μg/m³),Mass concentration (μg/m³),Mass concentration (μg/m³)
DateTimeUTC,F1_M11,P_M11,Q1_M11,Q2_M11,T1_M11,T2_M11,T3_M11,T4_M11,T5_M11,U1_M11,ZSPAN_M11,X0_M11,X2_M11,X1_M11
2021-10-09 23:00:00,,0820.6,4.99,0.00,29.4,28.5,00.0,38.5,31.1,13.5,0000.0,0003.43,0001.58,0001.01
2021-10-09 23:01:00,,0820.6,4.99,0.00,29.4,28.5,00.0,38.5,31.0,13.6,0000.0,0003.50,0001.58,0001.01
2021-10-09 23:02:00,,0820.6,5.00,0.00,29.3,28.5,00.0,38.5,31.0,13.5,0000.0,0002.97,0001.59,0001.01
2021-10-09 23:03:00,,0820.5,5.00,0.00,29.3,28.5,00.0,38.5,31.0,13.7,0000.0,0002.96,0001.62,0001.02
2021-10-09 23:04:00,,0820.5,4.99,0.00,29.3,28.5,00.0,38.5,31.0,13.7,0000.0,0002.94,0001.61,0001.02
2021-10-09 23:05:00,,0820.5,5.01,0.00,29.3,28.5,00.0,38.5,31.0,13.7,0000.0,0002.97,0001.60,0001.02
2021-10-09 23:06:00,,0820.5,5.00,0.00,29.3,28.5,00.0,38.5,31.0,13.8,0000.0,0002.97,0001.59,0001.02
2021-10-09 23:07:00,,0820.4,5.01,0.00,29.3,28.5,00.0,38.5,31.0,13.7,0000.0,0002.80,0001.54,0001.01
2021-10-09 23:08:00,,0820.4,4.99,0.00,29.3,28.5,00.0,38.5,31.0,13.3,0000.0,0002.67,0001.50,0001.00
2021-10-09 23:09:00,,0820.3,5.00,0.00,29.3,28.5,00.0,38.5,31.1,13.2,0000.0,0002.61,0001.49,0000.99
2021-10-09 23:10:00,,0820.3,5.00,0.00,29.3,28.5,00.0,38.5,31.1,13.2,0000.0,0002.49,0001.42,0000.98
2021-10-09 23:11:00,,0820.3,5.00,0.00,29.3,28.4,00.0,38.5,31.1,13.0,0000.0,0002.37,0001.38,0000.99
2021-10-09 23:12:00,,0820.2,5.00,0.00,29.3,28.4,00.0,38.5,31.0,12.6,0000.0,0002.34,0001.39,0000.99
2021-10-09 23:13:00,,0820.2,5.01,0.00,29.3,28.4,00.0,38.5,31.0,12.8,0000.0,0002.38,0001.41,0000.99
2021-10-09 23:14:00,,0820.1,4.99,0.00,29.3,28.4,00.0,38.5,31.0,12.8,0000.0,0002.52,0001.39,0000.98
2021-10-09 23:15:00,,0820.1,4.99,0.00,29.3,28.4,00.0,38.5,31.1,12.6,0000.0,0002.97,0001.41,0000.98
2021-10-09 23:16:00,,0820.1,5.01,0.00,29.3,28.4,00.0,38.5,31.0,12.8,0000.0,0003.54,0001.45,0000.98
2021-10-09 23:17:00,,0819.9,5.00,0.00,29.3,28.4,00.0,38.5,30.9,12.6,0000.0,0004.06,0001.45,0000.98
2021-10-09 23:18:00,,0820.0,5.00,0.00,29.3,28.4,00.0,38.5,31.0,12.6,0000.0,0004.21,0001.47,0000.99
2021-10-09 23:19:00,,0819.9,5.01,0.00,29.3,28.3,00.0,38.5,30.9,12.6,0000.0,0004.76,0001.48,0000.99
2021-10-09 23:20:00,,0819.9,5.00,0.00,29.2,28.3,00.0,38.5,30.9,12.5,0000.0,0006.01,0001.47,0000.98
2021-10-09 23:21:00,,0819.9,4.99,0.00,29.2,28.3,00.0,38.5,30.9,12.3,0000.0,0006.21,0001.51,0000.99
2021-10-09 23:22:00,,0820.0,5.01,0.00,29.2,28.2,00.0,38.4,30.9,12.5,0000.0,0006.19,0001.50,0000.98
2021-10-09 23:23:00,,0820.0,5.00,0.00,29.2,28.2,00.0,38.4,30.8,12.6,0000.0,0006.18,0001.49,0000.97
2021-10-09 23:24:00,,0820.0,5.00,0.00,29.1,28.2,00.0,38.4,30.8,12.6,0000.0,0006.16,0001.47,0000.98
2021-10-09 23:25:00,,0819.9,5.00,0.00,29.1,28.2,00.0,38.4,30.8,12.5,0000.0,0006.51,0001.47,0000.99
2021-10-09 23:26:00,,0819.9,5.00,0.00,29.1,28.2,00.0,38.4,30.8,12.8,0000.0,0006.88,0001.43,0000.97
2021-10-09 23:27:00,,0819.9,4.99,0.00,29.1,28.1,00.0,38.4,30.8,12.8,0000.0,0006.48,0001.40,0000.97
2021-10-09 23:28:00,,0819.9,4.99,0.00,29.1,28.1,00.0,38.4,30.8,12.6,0000.0,0006.00,0001.46,0000.96
2021-10-09 23:29:00,,0819.9,5.01,0.00,29.0,28.1,00.0,38.3,30.7,12.5,0000.0,0006.26,0001.53,0000.96
2021-10-09 23:30:00,,0819.9,5.01,0.00,29.0,28.1,00.0,38.3,30.7,12.5,0000.0,0006.18,0001.56,0000.95
2021-10-09 23:31:00,,0819.9,5.00,0.00,29.0,28.1,00.0,38.3,30.7,12.4,0000.0,0005.14,0001.57,0000.95
2021-10-09 23:32:00,,0820.0,4.99,0.00,29.0,28.1,00.0,38.3,30.7,12.6,0000.0,0004.50,0001.55,0000.95
2021-10-09 23:33:00,,0820.0,4.99,0.00,29.0,28.1,00.0,38.3,30.7,12.8,0000.0,0004.39,0001.54,0000.95
2021-10-09 23:34:00,,0820.0,5.01,0.00,29.0,28.0,00.0,38.2,30.7,12.9,0000.0,0004.42,0001.56,0000.95
2021-10-09 23:35:00,,0820.0,5.00,0.00,28.9,28.0,00.0,38.2,30.6,12.7,0000.0,0004.55,0001.55,0000.94
2021-10-09 23:36:00,,0820.0,5.00,0.00,28.9,28.0,00.0,38.2,30.6,12.6,0000.0,0005.28,0001.56,0000.93
2021-10-09 23:37:00,,0820.0,4.99,0.00,28.9,28.0,00.0,38.2,30.6,12.4,0000.0,0004.02,0001.59,0000.93
2021-10-09 23:38:00,,0820.1,5.00,0.00,28.9,28.0,00.0,38.2,30.6,12.3,0000.0,0004.05,0001.62,0000.93
2021-10-09 23:39:00,,0820.0,5.00,0.00,28.9,28.0,00.0,38.2,30.6,12.4,0000.0,0004.53,0001.65,0000.94
2021-10-09 23:40:00,,0820.1,5.00,0.00,28.9,28.0,00.0,38.1,30.6,12.2,0000.0,0004.48,0001.58,0000.94
2021-10-09 23:41:00,,0820.2,5.01,0.00,28.8,28.0,00.0,38.1,30.5,12.4,0000.0,0004.44,0001.59,0000.95
2021-10-09 23:42:00,,0820.2,5.00,0.00,28.8,28.0,00.0,38.1,30.5,12.6,0000.0,0004.67,0001.57,0000.95
2021-10-09 23:43:00,,0820.2,5.00,0.00,28.8,28.0,00.0,38.1,30.5,12.5,0000.0,0004.80,0001.59,0000.95
2021-10-09 23:44:00,,0820.2,4.98,0.00,28.8,28.0,00.0,38.1,30.5,12.4,0000.0,0006.19,0001.58,0000.94
2021-10-09 23:45:00,,0820.2,5.01,0.00,28.8,28.0,00.0,38.1,30.5,12.4,0000.0,0006.13,0001.57,0000.94
2021-10-09 23:46:00,,0820.2,4.99,0.00,28.8,27.9,00.0,38.1,30.5,12.3,0000.0,0006.02,0001.52,0000.94
2021-10-09 23:47:00,,0820.2,4.99,0.00,28.8,27.9,00.0,38.0,30.4,12.3,0000.0,0005.16,0001.53,0000.95
2021-10-09 23:48:00,,0820.2,5.00,0.00,28.7,27.9,00.0,38.0,30.4,12.3,0000.0,0005.71,0001.54,0000.96
2021-10-09 23:49:00,,0820.1,5.00,0.00,28.7,27.9,00.0,38.0,30.4,12.3,0000.0,0005.66,0001.53,0000.96
2021-10-09 23:50:00,,0820.2,5.00,0.00,28.7,27.9,00.0,38.0,30.4,12.4,0000.0,0005.45,0001.53,0000.97
2021-10-09 23:51:00,,0820.2,4.99,0.00,28.7,27.9,00.0,38.0,30.4,12.5,0000.0,0005.12,0001.53,0000.97
2021-10-09 23:52:00,,0820.2,5.00,0.00,28.7,27.9,00.0,38.0,30.4,12.5,0000.0,0005.05,0001.51,0000.98
2021-10-09 23:53:00,,0820.2,5.00,0.00,28.7,27.9,00.0,38.0,30.4,12.6,0000.0,0004.98,0001.52,0000.98
2021-10-09 23:54:00,,0820.2,5.01,0.00,28.7,28.0,00.0,38.0,30.4,12.7,0000.0,0004.64,0001.46,0000.97
2021-10-09 23:55:00,,0820.2,4.99,0.00,28.7,28.0,00.0,38.0,30.4,12.7,0000.0,0003.31,0001.46,0000.97
2021-10-09 23:56:00,,0820.2,5.01,0.00,28.7,28.0,00.0,38.0,30.4,12.5,0000.0,0003.35,0001.48,0000.98
2021-10-09 23:57:00,,0820.2,4.99,0.00,28.7,28.0,00.0,38.0,30.4,12.5,0000.0,0003.51,0001.54,0000.98
2021-10-09 23:58:00,,0820.3,5.01,0.00,28.7,28.0,00.0,38.0,30.4,12.7,0000.0,0003.70,0001.57,0000.96
2021-10-09 23:59:00,,0820.3,5.00,0.00,28.7,28.0,00.0,37.9,30.4,12.8,0000.0,0003.17,0001.58,0000.96
